JD,Date,Time,Lat,Long,"xCO2,w","xCO2,a",EqTemp,Pressure_Equi,SST(TSG),Sal(TSG),"fCO2w,eq","fCO2w,in situ",fCO2a,dfCO2
255.886,09/12/97,21:16:17,33.101,-118.174,392.55,360.44,21.89,1006.83,21.85,33.56,378.85,378.25,347.98,30.27
255.889,09/12/97,21:20:47,33.11,-118.19,391.85,360.44,21.71,1006.73,21.75,33.53,378.2,378.77,347.98,30.79
255.893,09/12/97,21:25:17,33.119,-118.206,389.82,360.44,21.66,1006.79,21.71,33.52,376.28,377.14,347.98,29.16
255.896,09/12/97,21:29:47,33.128,-118.222,388.23,360.44,21.69,1006.74,21.75,33.52,374.71,375.61,347.98,27.63
255.907,09/12/97,21:46:17,33.162,-118.281,386.48,360.44,21.5,1006.73,21.53,33.53,373.14,373.68,347.98,25.71
255.91,09/12/97,21:50:47,33.172,-118.297,387.82,360.44,21.43,1006.72,21.49,33.52,374.46,375.29,347.98,27.31
255.913,09/12/97,21:55:17,33.181,-118.314,388.44,360.44,21.39,1006.74,21.5,33.53,375.05,376.72,347.98,28.75
255.917,09/12/97,21:59:47,33.19,-118.33,388.64,360.44,21.42,1007.02,21.54,33.52,375.33,377.04,347.98,29.06
255.928,09/12/97,22:16:17,33.224,-118.389,387.45,357,21.55,1006.82,21.66,33.54,374.03,375.65,344.24,31.41
255.931,09/12/97,22:20:47,33.233,-118.405,388.67,357,21.63,1006.61,21.78,33.55,375.07,377.31,344.24,33.07
255.934,09/12/97,22:25:17,33.242,-118.421,389.23,357,21.71,1006.62,21.91,33.55,375.53,378.5,344.24,34.26
255.937,09/12/97,22:29:47,33.251,-118.437,390.29,357,21.95,1006.68,22.1,33.57,376.47,378.59,344.24,34.34
255.949,09/12/97,22:46:17,33.283,-118.497,392.14,357,22.3,1006.82,22.41,33.61,378.12,379.75,344.24,35.51
255.952,09/12/97,22:50:47,33.292,-118.513,392.55,357,22.34,1006.66,22.48,33.61,378.42,380.46,344.24,36.22
255.955,09/12/97,22:55:17,33.301,-118.529,392.73,357,22.32,1006.55,22.48,33.6,378.54,380.88,344.24,36.64
255.958,09/12/97,22:59:47,33.311,-118.545,393.29,357,22.41,1006.57,22.56,33.6,379.03,381.35,344.24,37.1
255.97,09/12/97,23:16:17,33.352,-118.596,397.63,357.05,22.58,1006.52,22.73,33.65,383.09,385.42,344.4,41.02
255.973,09/12/97,23:20:47,33.361,-118.612,399.2,357.05,22.64,1006.54,22.7,33.65,384.63,385.61,344.4,41.21
255.976,09/12/97,23:25:17,33.37,-118.628,399.38,357.05,22.59,1006.52,22.77,33.65,384.76,387.5,344.4,43.09
255.979,09/12/97,23:29:47,33.379,-118.643,400.37,357.05,22.66,1006.44,22.53,33.66,385.83,383.82,344.4,39.42
255.99,09/12/97,23:46:17,33.411,-118.684,394.89,357.05,21.74,1006.34,21.76,33.64,380.98,381.37,344.4,36.97
255.994,09/12/97,23:50:47,33.423,-118.697,393.69,357.05,21.78,1006.55,21.83,33.65,379.85,380.57,344.4,36.17
255.997,09/12/97,23:55:17,33.435,-118.711,393.2,357.05,21.68,1006.44,21.8,33.65,379.36,381.17,344.4,36.77
256,09/12/97,23:59:47,33.447,-118.725,392.81,357.05,21.76,1006.41,21.81,33.66,378.97,379.69,344.4,35.29
256.011,09/13/97,0:16:17,33.487,-118.779,393.37,357.66,21.76,1006.19,21.76,33.66,379.45,379.55,345.26,34.29
256.014,09/13/97,0:20:47,33.497,-118.795,392.54,357.66,21.71,1006.31,21.82,33.66,378.66,380.4,345.26,35.14
256.018,09/13/97,0:25:17,33.506,-118.812,392.67,357.66,21.64,1006.27,21.61,33.67,378.89,378.36,345.26,33.1
256.021,09/13/97,0:29:47,33.517,-118.827,392.13,357.66,21.44,1006.28,21.51,33.67,378.44,379.38,345.26,34.12
256.032,09/13/97,0:46:17,33.554,-118.885,381.89,357.66,20.95,1006.26,20.94,33.62,368.86,368.73,345.26,23.47
256.035,09/13/97,0:50:47,33.56,-118.903,374.18,357.66,20.79,1006.31,20.57,33.58,361.62,358.47,345.26,13.21
256.038,09/13/97,0:55:17,33.566,-118.922,365.74,357.66,20.59,1006.4,20.68,33.57,353.45,354.74,345.26,9.48
256.042,09/13/97,0:59:47,33.571,-118.941,361.63,357.66,20.6,1006.4,20.67,33.57,349.48,350.49,345.26,5.23
256.053,09/13/97,1:16:17,33.584,-119.011,373.24,359.61,21.23,1006.35,21.45,33.62,360.27,363.35,347.49,15.86
256.056,09/13/97,1:20:47,33.587,-119.03,380.45,359.61,21.24,1006.25,21.08,33.62,367.4,364.96,347.49,17.47
256.059,09/13/97,1:25:17,33.591,-119.048,382.5,359.61,20.32,1006.17,20.42,33.56,369.7,371.2,347.49,23.71
256.062,09/13/97,1:29:47,33.594,-119.066,378.48,359.61,20.94,1006.11,20.75,33.59,365.62,362.76,347.49,15.27
256.074,09/13/97,1:46:17,33.606,-119.132,365.24,359.61,20.54,1006.06,20.68,33.57,352.84,354.82,347.49,7.33
256.077,09/13/97,1:50:47,33.609,-119.151,362.94,359.61,20.48,1006.05,20.39,33.56,350.76,349.51,347.49,2.02
256.08,09/13/97,1:55:17,33.607,-119.166,361.43,359.61,20.49,1006.09,20.57,33.57,349.23,350.26,347.49,2.77
256.083,09/13/97,1:59:47,33.595,-119.167,367.09,359.61,20.51,1006.24,20.39,33.57,354.84,353.15,347.49,5.66
256.095,09/13/97,2:16:17,33.579,-119.163,370.75,358.7,20.73,1006.28,20.75,33.58,358.2,358.47,346.69,11.78
256.098,09/13/97,2:20:47,33.577,-119.161,371.34,358.7,20.66,1006.31,20.75,33.58,358.79,360.16,346.69,13.47
256.101,09/13/97,2:25:17,33.576,-119.16,371.34,358.7,20.67,1006.42,20.71,33.58,358.85,359.36,346.69,12.67
256.104,09/13/97,2:29:47,33.576,-119.159,371.28,358.7,20.63,1006.41,20.68,33.58,358.81,359.45,346.69,12.76
256.115,09/13/97,2:46:17,33.578,-119.16,368.95,358.7,20.53,1006.5,20.69,33.56,356.58,358.82,346.69,12.13
256.119,09/13/97,2:50:47,33.582,-119.176,369.45,358.7,20.63,1006.51,20.69,33.58,357.06,357.99,346.69,11.3
256.122,09/13/97,2:55:17,33.587,-119.194,369.5,358.7,20.61,1006.52,20.71,33.59,357.11,358.44,346.69,11.75
256.125,09/13/97,2:59:47,33.591,-119.213,370.93,358.7,20.65,1006.67,20.73,33.59,358.53,359.71,346.69,13.02
256.136,09/13/97,3:16:17,33.607,-119.281,365.97,357.24,19.87,1006.8,20.08,33.53,354.12,357.14,345.5,11.64
256.139,09/13/97,3:20:47,33.612,-119.3,364.35,357.24,20.17,1006.77,20.09,33.53,352.53,351.42,345.5,5.91
256.143,09/13/97,3:25:17,33.616,-119.319,364.32,357.24,20.16,1006.96,20.35,33.52,352.45,355.19,345.5,9.69
256.146,09/13/97,3:29:47,33.621,-119.337,366.37,357.24,20.54,1006.97,20.6,33.56,354.3,355.2,345.5,9.69
256.157,09/13/97,3:46:17,33.637,-119.407,373.57,357.24,20.5,1007.08,20.51,33.56,361.35,361.47,345.5,15.97
256.16,09/13/97,3:50:47,33.641,-119.425,372.78,357.24,20.56,1007.16,20.46,33.56,360.64,359.2,345.5,13.69
256.163,09/13/97,3:55:17,33.646,-119.444,370.35,357.24,20.42,1007.09,20.45,33.56,358.27,358.67,345.5,13.17
256.167,09/13/97,3:59:47,33.65,-119.463,369.44,357.24,20.51,1007.28,20.6,33.56,357.38,358.76,345.5,13.25
256.178,09/13/97,4:16:17,33.664,-119.533,374.78,356.74,20.55,1007.26,20.22,33.55,362.74,357.93,345.9,12.03
256.181,09/13/97,4:20:47,33.668,-119.552,373.38,356.74,19.97,1007.44,19.14,33.52,361.98,350.14,345.9,4.24
256.184,09/13/97,4:25:17,33.671,-119.571,366.97,356.74,18.96,1007.42,18.39,33.48,356.11,348.04,345.9,2.14
256.187,09/13/97,4:29:47,33.675,-119.59,352.54,356.74,18.62,1007.44,18.36,33.48,342.13,338.48,345.9,-7.42
256.199,09/13/97,4:46:17,33.688,-119.656,346.19,356.74,19.16,1007.48,19.07,33.51,335.67,334.53,345.9,-11.37
256.202,09/13/97,4:50:47,33.69,-119.669,344.88,356.74,19.17,1007.57,19.18,33.52,334.38,334.48,345.9,-11.42
256.205,09/13/97,4:55:17,33.692,-119.683,344.14,356.74,19.29,1007.39,19.16,33.52,333.61,331.92,345.9,-13.98
256.208,09/13/97,4:59:47,33.696,-119.702,344.35,356.74,19.3,1007.36,19.27,33.53,333.75,333.46,345.9,-12.44
256.22,09/13/97,5:16:17,33.713,-119.774,346.5,357.32,19.23,1007.65,19.03,33.51,336.04,333.24,346.08,-12.84
256.223,09/13/97,5:20:47,33.717,-119.793,347.22,357.32,19.07,1007.66,19.14,33.49,336.7,337.66,346.08,-8.43
256.226,09/13/97,5:25:17,33.722,-119.812,349.01,357.32,19.3,1007.6,19.07,33.51,338.44,335.28,346.08,-10.8
256.229,09/13/97,5:29:47,33.727,-119.831,349.66,357.32,19.24,1007.53,19.34,33.51,338.93,340.4,346.08,-5.68
256.24,09/13/97,5:46:17,33.735,-119.901,356.94,357.32,20.09,1007.36,20.24,33.55,345.5,347.55,346.08,1.47
256.244,09/13/97,5:50:47,33.736,-119.92,359.7,357.32,20.36,1007.4,20.54,33.56,348.03,350.62,346.08,4.54
256.247,09/13/97,5:55:17,33.736,-119.939,363.74,357.32,20.59,1007.6,20.65,33.56,351.96,352.92,346.08,6.84
256.25,09/13/97,5:59:47,33.737,-119.958,367.01,357.32,20.68,1007.44,20.88,33.57,354.95,357.73,346.08,11.65
256.261,09/13/97,6:16:17,33.738,-120.03,374.7,356.47,20.86,1007.5,20.48,33.56,362.61,357.14,344.74,12.4
256.264,09/13/97,6:20:47,33.739,-120.049,375.35,356.47,20.9,1007.41,21.23,33.59,362.81,367.58,344.74,22.85
256.268,09/13/97,6:25:17,33.739,-120.068,375.66,356.47,21.16,1007.44,21.31,33.59,363.08,365.27,344.74,20.53
256.271,09/13/97,6:29:47,33.739,-120.088,377.04,356.47,21.35,1007.27,21.5,33.59,364.24,366.4,344.74,21.66
256.282,09/13/97,6:46:17,33.743,-120.16,376.29,356.47,20.38,1007.75,20.01,33.57,364.49,359.25,344.74,14.51
256.285,09/13/97,6:50:47,33.748,-120.179,371.14,356.47,19.98,1008,19.64,33.52,359.77,354.97,344.74,10.23
256.288,09/13/97,6:55:17,33.753,-120.197,367.21,356.47,19.75,1007.59,19.62,33.53,355.83,354.04,344.74,9.31
256.292,09/13/97,6:59:47,33.759,-120.215,365.16,356.47,19.73,1007.52,19.79,33.54,353.73,354.64,344.74,9.91
256.303,09/13/97,7:16:17,33.783,-120.279,366.29,355.96,19.76,1007.88,19.65,33.52,355.02,353.52,345.79,7.73
256.306,09/13/97,7:20:47,33.79,-120.296,365.24,355.96,19.48,1007.6,19.03,33.49,354.21,347.89,345.79,2.09
256.309,09/13/97,7:25:17,33.798,-120.312,364.32,355.96,18.92,1007.67,18.48,33.49,353.59,347.34,345.79,1.55
256.312,09/13/97,7:29:47,33.806,-120.328,360.85,355.96,18.52,1007.77,17.88,33.47,350.52,341.49,345.79,-4.3
256.324,09/13/97,7:46:17,33.834,-120.386,358.14,355.96,18.24,1007.87,18.03,33.46,347.86,344.89,345.79,-0.91
256.327,09/13/97,7:50:47,33.842,-120.401,358.27,355.96,18.36,1007.6,18.22,33.46,347.81,345.84,345.79,0.05
256.33,09/13/97,7:55:17,33.85,-120.416,358.28,355.96,18.42,1007.75,18.1,33.46,347.92,343.47,345.79,-2.32
256.333,09/13/97,7:59:47,33.859,-120.431,359.02,355.96,18.17,1007.89,17.75,33.43,348.84,342.91,345.79,-2.89
256.345,09/13/97,8:16:17,33.888,-120.484,361.46,355.64,18.04,1007.77,17.74,33.44,351.17,346.99,345.23,1.75
256.348,09/13/97,8:20:47,33.896,-120.498,361.5,355.64,18.07,1007.8,17.87,33.44,351.17,348.3,345.23,3.06
256.351,09/13/97,8:25:17,33.903,-120.513,360.23,355.64,18.17,1007.92,17.98,33.45,349.92,347.19,345.23,1.96
256.354,09/13/97,8:29:47,33.911,-120.527,358.05,355.64,18.29,1007.55,18.07,33.44,347.65,344.56,345.23,-0.67
256.365,09/13/97,8:46:17,33.937,-120.583,358.42,355.64,19,1007.58,19.02,33.48,347.59,347.87,345.23,2.64
256.369,09/13/97,8:50:47,33.944,-120.598,357.61,355.64,19.11,1007.82,19.14,33.5,346.83,347.28,345.23,2.05
256.372,09/13/97,8:55:17,33.951,-120.614,357.44,355.64,19.26,1008.1,19.22,33.5,346.73,346.06,345.23,0.83
256.375,09/13/97,8:59:47,33.958,-120.629,357.74,355.64,19.27,1008.05,19.24,33.5,347,346.48,345.23,1.24
256.386,09/13/97,9:16:17,33.998,-120.668,358.16,355.59,19.38,1008.26,19.31,33.51,347.44,346.51,344.9,1.61
256.389,09/13/97,9:20:47,34.012,-120.675,358.62,355.59,19.39,1008.31,19.31,33.49,347.9,346.83,344.9,1.93
256.393,09/13/97,9:25:17,34.026,-120.683,359.83,355.59,19.38,1008.39,19.32,33.52,349.1,348.28,344.9,3.37
256.396,09/13/97,9:29:47,34.039,-120.69,361.12,355.59,19.42,1008.07,19.32,33.52,350.25,348.8,344.9,3.9
256.407,09/13/97,9:46:17,34.09,-120.715,365.52,355.59,19.33,1008.02,19.22,33.49,354.53,352.96,344.9,8.05
256.41,09/13/97,9:50:47,34.103,-120.722,367.98,355.59,19.3,1008.05,19.15,33.48,356.96,354.93,344.9,10.03
256.413,09/13/97,9:55:17,34.116,-120.728,368.8,355.59,19.23,1007.89,19.09,33.49,357.73,355.67,344.9,10.77
256.417,09/13/97,9:59:47,34.13,-120.734,369.22,355.59,19.18,1008.28,18.92,33.49,358.36,354.67,344.9,9.77
256.428,09/13/97,10:16:17,34.18,-120.759,364.37,355.84,18.36,1008.39,17.88,33.4,354.16,347.44,346.15,1.29
256.431,09/13/97,10:20:47,34.194,-120.766,362.17,355.84,18.12,1008.22,17.67,33.4,352.05,345.63,346.15,-0.52
256.434,09/13/97,10:25:17,34.207,-120.773,361.13,355.84,17.9,1008.46,17.45,33.4,351.22,344.91,346.15,-1.24
256.437,09/13/97,10:29:47,34.22,-120.78,361.14,355.84,17.84,1008.24,17.48,33.41,351.14,346.06,346.15,-0.09
256.449,09/13/97,10:46:17,34.269,-120.808,366.12,355.84,17.07,1008.4,16,33.35,356.65,341.37,346.15,-4.79
256.452,09/13/97,10:50:47,34.282,-120.816,374.56,355.84,16.68,1008.38,15.61,33.33,365.01,349.39,346.15,3.24
256.455,09/13/97,10:55:17,34.295,-120.824,378.88,355.84,16.39,1008.37,15.55,33.33,369.25,356.69,346.15,10.54
256.458,09/13/97,10:59:47,34.308,-120.832,378.82,355.84,16.37,1008.44,15.82,33.34,369.1,360.81,346.15,14.65
256.47,09/13/97,11:16:17,34.357,-120.86,357.89,355.63,16.68,1008.48,15.81,33.36,348.73,336.54,346.19,-9.65
256.473,09/13/97,11:20:47,34.367,-120.871,359.71,355.63,16.53,1008.56,15.75,33.35,350.55,339.48,346.19,-6.71
256.476,09/13/97,11:25:17,34.376,-120.885,365.33,355.63,16.48,1008.45,15.72,33.35,356,344.99,346.19,-1.19
256.479,09/13/97,11:29:47,34.385,-120.899,368.87,355.63,16.54,1008.41,16.08,33.34,359.3,352.54,346.19,6.35
256.49,09/13/97,11:46:17,34.416,-120.945,362.42,355.63,17.3,1008.38,16.91,33.38,352.68,347.01,346.19,0.83
256.494,09/13/97,11:50:47,34.425,-120.958,362.21,355.63,17.34,1008.66,16.98,33.38,352.53,347.48,346.19,1.29
256.497,09/13/97,11:55:17,34.435,-120.972,361.91,355.63,17.41,1008.63,17.05,33.38,352.2,346.95,346.19,0.76
256.5,09/13/97,11:59:47,34.445,-120.985,360.94,355.63,17.43,1008.39,17.03,33.38,351.18,345.52,346.19,-0.67
256.511,09/13/97,12:16:17,34.482,-121.033,359.71,355.71,17.41,1008.81,16.99,33.37,350.16,344.26,345.71,-1.45
256.514,09/13/97,12:20:47,34.492,-121.046,358.89,355.71,17.38,1008.78,16.97,33.37,349.35,343.52,345.71,-2.19
256.518,09/13/97,12:25:17,34.502,-121.059,358.37,355.71,17.4,1008.77,17.35,33.38,348.68,348.04,345.71,2.33
256.521,09/13/97,12:29:47,34.511,-121.072,357.95,355.71,17.9,1008.83,17.99,33.43,348.03,349.23,345.71,3.52
256.532,09/13/97,12:46:17,34.547,-121.12,353,355.71,18.65,1008.93,18.56,33.5,343.01,341.76,345.71,-3.95
256.535,09/13/97,12:50:47,34.556,-121.133,354.04,355.71,18.66,1008.91,18.5,33.49,344.04,341.76,345.71,-3.95
256.538,09/13/97,12:55:17,34.566,-121.146,355.52,355.71,18.33,1008.9,18.01,33.48,345.68,341.15,345.71,-4.56
256.542,09/13/97,12:59:47,34.576,-121.159,353.27,355.71,18.26,1008.93,17.97,33.47,343.53,339.41,345.71,-6.3
256.553,09/13/97,13:16:17,34.611,-121.207,356.82,355.99,18.2,1009.1,17.99,33.48,347.02,344.11,346.32,-2.21
256.556,09/13/97,13:20:47,34.621,-121.22,356.25,355.99,18.24,1009.18,17.99,33.48,346.49,343.04,346.32,-3.28
256.559,09/13/97,13:25:17,34.631,-121.233,355.51,355.99,18.21,1009.17,18,33.49,345.77,342.89,346.32,-3.43
256.562,09/13/97,13:29:47,34.641,-121.246,355.26,355.99,18.25,1009.03,17.98,33.49,345.49,341.69,346.32,-4.63
256.574,09/13/97,13:46:17,34.679,-121.291,355.48,355.99,18.14,1009.41,17.93,33.48,345.86,342.82,346.32,-3.5
256.577,09/13/97,13:50:47,34.691,-121.301,355.47,355.99,18.22,1009.6,18,33.49,345.88,342.87,346.32,-3.45
256.58,09/13/97,13:55:17,34.703,-121.31,355,355.99,18.22,1009.49,18.02,33.49,345.38,342.61,346.32,-3.71
256.583,09/13/97,13:59:47,34.715,-121.32,355.18,355.99,18.28,1009.66,18.06,33.5,345.59,342.57,346.32,-3.74
256.595,09/13/97,14:16:17,34.76,-121.352,353.88,355.74,18.45,1009.47,18.28,33.52,344.17,341.76,346.1,-4.34
256.598,09/13/97,14:20:47,34.772,-121.36,353.18,355.74,18.52,1009.71,18.37,33.53,343.53,341.45,346.1,-4.65
256.601,09/13/97,14:25:17,34.784,-121.368,352.94,355.74,18.53,1009.68,18.43,33.53,343.26,341.79,346.1,-4.31
256.604,09/13/97,14:29:47,34.797,-121.377,352.65,355.74,18.61,1009.8,18.44,33.53,343.02,340.66,346.1,-5.44
256.615,09/13/97,14:46:17,34.84,-121.408,350.95,355.74,18.4,1009.75,18.27,33.53,341.42,339.63,346.1,-6.47
256.619,09/13/97,14:50:47,34.852,-121.417,350.58,355.74,18.53,1009.95,18.34,33.53,341.1,338.37,346.1,-7.73
256.622,09/13/97,14:55:17,34.863,-121.426,349.8,355.74,18.47,1009.9,18.34,33.53,340.32,338.53,346.1,-7.57
256.625,09/13/97,14:59:47,34.875,-121.434,349.48,355.74,18.51,1009.91,18.37,33.53,340,338.04,346.1,-8.05
256.636,09/13/97,15:16:17,34.91,-121.462,350.29,355.5,18.5,1010.03,18.26,33.51,340.88,337.55,346.48,-8.94
256.639,09/13/97,15:20:47,34.914,-121.46,351.7,355.5,18.45,1010.05,18.26,33.52,342.26,339.7,346.48,-6.79
256.643,09/13/97,15:25:17,34.924,-121.468,352.42,355.5,18.49,1010.33,18.28,33.51,343.04,340.12,346.48,-6.37
256.646,09/13/97,15:29:47,34.936,-121.476,352.56,355.5,18.49,1010.29,18.25,33.51,343.18,339.83,346.48,-6.65
256.657,09/13/97,15:46:17,34.977,-121.511,353.68,355.5,17.78,1010.36,17.47,33.48,344.63,340.38,346.48,-6.1
256.66,09/13/97,15:50:47,34.988,-121.521,353.29,355.5,17.69,1010.59,17.34,33.46,344.38,339.58,346.48,-6.9
256.663,09/13/97,15:55:17,34.999,-121.531,354.79,355.5,17.58,1010.51,17.14,33.44,345.9,339.85,346.48,-6.63
256.667,09/13/97,15:59:47,35.01,-121.541,357.6,355.5,17.54,1010.53,17.13,33.45,348.65,342.78,346.48,-3.7
256.678,09/13/97,16:16:17,35.055,-121.576,358.01,355.79,17.57,1010.8,17.19,33.45,349.12,343.73,346.66,-2.93
256.681,09/13/97,16:20:47,35.067,-121.585,357.36,355.79,17.61,1010.82,17.23,33.45,348.47,343.15,346.66,-3.52
256.684,09/13/97,16:25:17,35.08,-121.595,356.95,355.79,17.58,1010.75,17.21,33.45,348.06,342.81,346.66,-3.85
256.687,09/13/97,16:29:47,35.092,-121.604,355.91,355.79,17.8,1010.85,17.66,33.5,346.89,344.96,346.66,-1.7
256.699,09/13/97,16:46:17,35.139,-121.637,350.52,355.79,18.37,1011.06,18.13,33.52,341.51,338.18,346.66,-8.49
256.702,09/13/97,16:50:47,35.152,-121.646,351.12,355.79,18.17,1010.99,17.88,33.5,342.18,338.18,346.66,-8.48
256.705,09/13/97,16:55:17,35.162,-121.659,351.96,355.79,18.15,1011.12,17.86,33.5,343.05,339.05,346.66,-7.61
256.708,09/13/97,16:59:47,35.172,-121.673,351.81,355.79,18.13,1011,17.91,33.51,342.85,339.75,346.66,-6.92
256.72,09/13/97,17:16:17,35.209,-121.72,351.41,356,18.08,1011.1,17.75,33.5,342.55,337.99,346.92,-8.93
256.723,09/13/97,17:20:47,35.219,-121.733,356.26,356,18,1011.26,17.79,33.51,347.32,344.4,346.92,-2.53
256.726,09/13/97,17:25:17,35.229,-121.746,350.08,356,18.1,1011.3,17.92,33.52,341.25,338.89,346.92,-8.03
256.729,09/13/97,17:29:47,35.239,-121.758,347.6,356,18.18,1011.47,18.02,33.53,338.85,336.63,346.92,-10.29
256.74,09/13/97,17:46:17,35.276,-121.805,342.28,356,18.37,1011.11,18.19,33.54,333.48,331.03,346.92,-15.89
256.744,09/13/97,17:50:47,35.286,-121.817,341.59,356,18.42,1010.99,18.24,33.54,332.75,330.24,346.92,-16.68
256.747,09/13/97,17:55:17,35.296,-121.83,341.55,356,18.43,1011.02,18.22,33.54,332.73,329.89,346.92,-17.03
256.75,09/13/97,17:59:47,35.307,-121.842,341.9,356,18.4,1011.03,18.21,33.54,333.07,330.45,346.92,-16.47
256.761,09/13/97,18:16:17,35.347,-121.888,344.59,355.92,18.3,1011.11,18.03,33.53,335.8,332.18,346.81,-14.63
256.764,09/13/97,18:20:47,35.358,-121.9,345.84,355.92,18.27,1011.11,18.02,33.52,337.02,333.66,346.81,-13.15
256.768,09/13/97,18:25:17,35.368,-121.911,346.21,355.92,18.24,1010.82,17.97,33.53,337.31,333.64,346.81,-13.17
256.771,09/13/97,18:29:47,35.379,-121.923,346.64,355.92,18.17,1011.05,17.96,33.52,337.8,334.99,346.81,-11.82
256.782,09/13/97,18:46:17,35.419,-121.965,349.22,355.92,18.31,1011.16,18.24,33.52,340.23,339.24,346.81,-7.57
256.785,09/13/97,18:50:47,35.43,-121.977,348.4,355.92,18.43,1010.99,18.31,33.53,339.35,337.65,346.81,-9.16
256.788,09/13/97,18:55:17,35.442,-121.988,347.05,355.92,18.4,1011.27,18.17,33.53,338.18,335.11,346.81,-11.7
256.792,09/13/97,18:59:47,35.452,-122,347.81,355.92,18.22,1011.19,17.74,33.51,339.08,332.48,346.81,-14.32
256.803,09/13/97,19:16:17,35.49,-122.043,350.18,355.7,17.77,1011.32,17.57,33.49,341.51,338.72,346.75,-8.03
256.806,09/13/97,19:20:47,35.497,-122.051,350.25,355.7,17.88,1011.37,17.6,33.5,341.58,337.74,346.75,-9.02
256.809,09/13/97,19:25:17,35.502,-122.056,355.9,355.7,17.87,1011.33,17.54,33.5,347.1,342.37,346.75,-4.39
256.812,09/13/97,19:29:47,35.509,-122.065,353.18,355.7,17.88,1011.24,17.54,33.5,344.42,339.56,346.75,-7.19
256.824,09/13/97,19:46:18,35.545,-122.111,351.65,355.7,18.34,1011.19,18.21,33.54,342.63,340.77,346.75,-5.98
256.827,09/13/97,19:50:47,35.554,-122.124,349.77,355.7,18.47,1011.2,18.44,33.55,340.7,340.31,346.75,-6.44
256.83,09/13/97,19:55:17,35.562,-122.138,346.16,355.7,18.7,1011.1,18.64,33.56,337.06,336.3,346.75,-10.46
256.833,09/13/97,19:59:47,35.57,-122.153,342.81,355.7,18.8,1011.29,18.73,33.57,333.82,332.85,346.75,-13.91
256.845,09/13/97,20:16:17,35.572,-122.202,345.53,355.79,18.59,1011.29,18.39,33.53,336.62,333.94,346.55,-12.62
256.848,09/13/97,20:20:47,35.572,-122.201,346,355.79,18.58,1011.21,18.44,33.53,337.03,335.19,346.55,-11.36
256.851,09/13/97,20:25:17,35.571,-122.2,346.21,355.79,18.6,1011.31,18.44,33.53,337.26,335.19,346.55,-11.36
256.854,09/13/97,20:29:47,35.57,-122.199,346.56,355.79,18.56,1011.27,18.39,33.53,337.61,335.28,346.55,-11.28
256.865,09/13/97,20:46:17,35.563,-122.199,346.66,355.79,18.64,1011.13,18.46,33.53,337.64,335.22,346.55,-11.33
256.869,09/13/97,20:50:47,35.561,-122.199,347.09,355.79,18.61,1011.02,18.43,33.52,338.03,335.55,346.55,-11
256.872,09/13/97,20:55:17,35.56,-122.198,346.34,355.79,18.65,1011.06,18.49,33.52,337.29,335.14,346.55,-11.41
256.875,09/13/97,20:59:47,35.557,-122.199,346.72,355.79,18.64,1011.02,18.51,33.53,337.64,335.8,346.55,-10.76
256.886,09/13/97,21:16:17,35.577,-122.214,346.1,355.78,18.52,1010.9,18.4,33.53,337.04,335.41,346.35,-10.94
256.889,09/13/97,21:20:47,35.584,-122.212,346.51,355.78,18.64,1010.68,18.46,33.53,337.34,334.89,346.35,-11.46
256.893,09/13/97,21:25:17,35.585,-122.215,346.78,355.78,18.66,1010.72,18.47,33.53,337.61,335.1,346.35,-11.25
256.896,09/13/97,21:29:47,35.583,-122.217,347.96,355.78,18.66,1010.8,18.5,33.53,338.78,336.51,346.35,-9.83
256.907,09/13/97,21:46:17,35.577,-122.217,348.81,355.78,18.74,1010.75,18.54,33.53,339.57,336.8,346.35,-9.55
256.91,09/13/97,21:50:48,35.575,-122.217,348.94,355.78,18.68,1010.83,18.53,33.53,339.73,337.63,346.35,-8.71
256.913,09/13/97,21:55:17,35.574,-122.217,349.01,355.78,18.69,1010.79,18.56,33.53,339.77,337.91,346.35,-8.44
256.917,09/13/97,21:59:47,35.572,-122.217,348.93,355.78,18.7,1010.96,18.49,33.53,339.77,336.98,346.35,-9.37
256.928,09/13/97,22:16:17,35.566,-122.216,348.85,356.01,18.7,1011.01,18.56,33.53,339.68,337.69,346.53,-8.83
256.931,09/13/97,22:20:47,35.572,-122.221,349.09,356.01,18.63,1010.75,18.5,33.52,339.85,338.15,346.53,-8.37
256.934,09/13/97,22:25:17,35.583,-122.231,348.91,356.01,18.67,1010.79,18.5,33.53,339.69,337.35,346.53,-9.17
256.937,09/13/97,22:29:47,35.593,-122.244,349.16,356.01,18.67,1010.83,18.57,33.54,339.92,338.54,346.53,-7.98
256.949,09/13/97,22:46:17,35.634,-122.286,347.37,356.01,18.84,1010.73,18.68,33.52,338.1,335.92,346.53,-10.6
256.952,09/13/97,22:50:47,35.647,-122.291,346.75,356.01,18.92,1010.83,18.8,33.4,337.48,335.78,346.53,-10.75
256.955,09/13/97,22:55:17,35.657,-122.296,352.24,356.01,18.94,1010.62,18.89,33.36,342.71,341.98,346.53,-4.54
256.958,09/13/97,22:59:47,35.67,-122.301,358.39,356.01,18.95,1010.63,18.91,33.29,348.68,348.21,346.53,1.68
256.97,09/13/97,23:16:17,35.723,-122.322,368.56,355.91,18.91,1010.44,18.83,33.29,358.55,357.34,346.24,11.1
256.973,09/13/97,23:20:47,35.737,-122.327,368.25,355.91,18.95,1010.5,18.88,33.35,358.24,357.25,346.24,11.01
256.976,09/13/97,23:25:17,35.751,-122.333,365.57,355.91,18.95,1010.36,18.76,33.33,355.64,352.86,346.24,6.61
256.979,09/13/97,23:29:47,35.765,-122.34,364.83,355.91,18.84,1010.47,18.66,33.32,355,352.47,346.24,6.22
256.99,09/13/97,23:46:17,35.811,-122.365,365.86,355.91,18.9,1010.32,18.76,33.32,355.91,353.87,346.24,7.62
256.994,09/13/97,23:50:47,35.825,-122.373,363.71,355.91,18.93,1010.37,18.72,33.33,353.86,350.86,346.24,4.62
256.997,09/13/97,23:55:17,35.839,-122.38,362.72,355.91,18.88,1010.3,18.72,33.33,352.86,350.57,346.24,4.33
257,09/13/97,23:59:47,35.851,-122.39,363.57,355.91,18.93,1010.42,18.84,33.35,353.68,352.39,346.24,6.14
257.011,09/14/97,0:16:18,35.903,-122.43,367.82,357.17,19.02,1010.42,18.81,33.39,357.82,354.72,347.36,7.36
257.014,09/14/97,0:20:47,35.918,-122.442,365.62,357.17,19,1010.36,18.99,33.39,355.58,355.48,347.36,8.12
257.018,09/14/97,0:25:17,35.933,-122.453,364.28,357.17,18.97,1010.43,18.81,33.39,354.38,352.15,347.36,4.79
257.021,09/14/97,0:29:47,35.948,-122.464,362.31,357.17,19.01,1010.37,18.96,33.38,352.38,351.65,347.36,4.29
257.032,09/14/97,0:46:17,36.003,-122.506,360.62,357.17,19.11,1010.22,19.06,33.35,350.64,349.87,347.36,2.51